• In Russia
  • List of Countries
  • For 7 days
  • Water Temperature
  • Satellite Maps
  • Weather Map
  • Weather Widgets
  • user-avatar
    Login

    Hourly Weather Selistea Noua

    Today, 23 October, Tuesday

    Time Temperature Precipitation Wind Pressure Humidity
    00:00 +9°C° 0 mm 1 mps 751 mmHg 59%
    01:00 +9°C° 0 mm 1 mps 751 mmHg 60%
    02:00 +8°C° 0 mm 1 mps 751 mmHg 63%
    03:00 +8°C° 0 mm 1 mps 751 mmHg 64%
    04:00 +8°C° 0 mm 1 mps 750 mmHg 65%
    05:00 +7°C° 0 mm 1 mps 750 mmHg 66%
    06:00 +8°C° 0 mm 1 mps 750 mmHg 64%
    07:00 +8°C° 0 mm 1 mps 750 mmHg 61%
    08:00 +9°C° 0 mm 1 mps 750 mmHg 56%
    09:00 +9°C° 0 mm 2 mps 750 mmHg 53%
    10:00 +12°C° 0 mm 2 mps 749 mmHg 49%
    11:00 +13°C° 0 mm 2 mps 749 mmHg 45%
    12:00 +14°C° 0 mm 2 mps 748 mmHg 44%
    13:00 +14°C° 0 mm 3 mps 747 mmHg 43%
    14:00 +16°C° 0 mm 3 mps 747 mmHg 44%
    15:00 +14°C° 0 mm 3 mps 746 mmHg 47%
    16:00 +14°C° 0 mm 2 mps 745 mmHg 49%
    17:00 +14°C° 0 mm 2 mps 744 mmHg 52%
    18:00 +13°C° 0 mm 3 mps 743 mmHg 53%
    19:00 +12°C° 0 mm 4 mps 742 mmHg 55%
    20:00 +12°C° 0 mm 5 mps 742 mmHg 57%
    21:00 +11°C° 0.1 mm 6 mps 741 mmHg 58%
    22:00 +11°C° 0.1 mm 6 mps 740 mmHg 60%
    23:00 +11°C° 0.1 mm 6 mps 739 mmHg 62%

    Tomorrow, 24 October, Wednesday

    Time Temperature Precipitation Wind Pressure Humidity
    00:00 +11°C° 0.4 mm 7 mps 739 mmHg 61%
    01:00 +10°C° 0.4 mm 7 mps 738 mmHg 61%
    02:00 +10°C° 0.4 mm 7 mps 737 mmHg 61%
    03:00 +10°C° 0.1 mm 7 mps 736 mmHg 60%
    04:00 +10°C° 0.1 mm 7 mps 735 mmHg 59%
    05:00 +10°C° 0.1 mm 7 mps 734 mmHg 58%
    06:00 +10°C° 0.1 mm 7 mps 733 mmHg 56%
    07:00 +10°C° 0.1 mm 7 mps 733 mmHg 55%
    08:00 +11°C° 0.1 mm 7 mps 732 mmHg 54%
    09:00 +10°C° 0.7 mm 7 mps 732 mmHg 58%
    10:00 +10°C° 0.7 mm 7 mps 731 mmHg 61%
    11:00 +10°C° 0.7 mm 7 mps 731 mmHg 65%
    12:00 +10°C° 0.3 mm 7 mps 731 mmHg 57%
    13:00 +10°C° 0.3 mm 8 mps 730 mmHg 49%
    14:00 +11°C° 0.3 mm 8 mps 730 mmHg 41%
    15:00 +10°C° 0.1 mm 8 mps 731 mmHg 46%
    16:00 +9°C° 0.1 mm 8 mps 731 mmHg 50%
    17:00 +7°C° 0.1 mm 8 mps 732 mmHg 55%
    18:00 +6°C° 0 mm 8 mps 732 mmHg 55%
    19:00 +5°C° 0 mm 8 mps 733 mmHg 54%
    20:00 +5°C° 0 mm 8 mps 734 mmHg 54%
    21:00 +4°C° 0 mm 8 mps 734 mmHg 56%
    22:00 +4°C° 0 mm 8 mps 735 mmHg 58%
    23:00 +2°C° 0 mm 8 mps 735 mmHg 59%

    Day after tomorrow, 25 October, Thursday

    Time Temperature Precipitation Wind Pressure Humidity
    00:00 +3°C° 0 mm 9 mps 735 mmHg 59%
    01:00 +3°C° 0 mm 10 mps 735 mmHg 59%
    02:00 +3°C° 0 mm 10 mps 735 mmHg 59%
    03:00 +3°C° 0.1 mm 10 mps 736 mmHg 60%
    04:00 +5°C° 0.1 mm 10 mps 736 mmHg 61%
    05:00 +5°C° 0.1 mm 10 mps 736 mmHg 62%
    06:00 +5°C° 0.1 mm 10 mps 737 mmHg 61%
    07:00 +5°C° 0.1 mm 10 mps 738 mmHg 61%
    08:00 +5°C° 0.1 mm 10 mps 739 mmHg 60%
    09:00 +5°C° 0 mm 10 mps 739 mmHg 57%
    10:00 +5°C° 0 mm 10 mps 740 mmHg 55%
    11:00 +6°C° 0 mm 10 mps 740 mmHg 52%
    12:00 +6°C° 0 mm 9 mps 740 mmHg 49%
    13:00 +7°C° 0 mm 9 mps 740 mmHg 47%
    14:00 +7°C° 0 mm 8 mps 740 mmHg 44%
    15:00 +8°C° 0 mm 6 mps 740 mmHg 44%
    16:00 +8°C° 0 mm 5 mps 740 mmHg 43%
    17:00 +8°C° 0 mm 3 mps 740 mmHg 43%
    18:00 +8°C° 0.1 mm 3 mps 740 mmHg 46%
    19:00 +7°C° 0.1 mm 4 mps 740 mmHg 48%
    20:00 +6°C° 0.1 mm 4 mps 740 mmHg 51%
    21:00 +6°C° 0.1 mm 4 mps 739 mmHg 54%
    22:00 +6°C° 0.1 mm 5 mps 739 mmHg 58%
    23:00 +5°C° 0.1 mm 6 mps 738 mmHg 62%

    26 October, Friday

    Time Temperature Precipitation Wind Pressure Humidity
    00:00 +7°C° 0.2 mm 6 mps 739 mmHg 64%
    01:00 +8°C° 0.2 mm 6 mps 739 mmHg 65%
    02:00 +8°C° 0.2 mm 6 mps 739 mmHg 67%
    03:00 +8°C° 0 mm 6 mps 739 mmHg 69%
    04:00 +7°C° 0 mm 6 mps 740 mmHg 70%
    05:00 +5°C° 0 mm 6 mps 740 mmHg 72%
    06:00 +5°C° 0 mm 6 mps 741 mmHg 71%
    07:00 +5°C° 0 mm 6 mps 742 mmHg 71%
    08:00 +5°C° 0 mm 6 mps 742 mmHg 70%
    09:00 +8°C° 0 mm 6 mps 743 mmHg 64%
    10:00 +9°C° 0 mm 6 mps 743 mmHg 57%
    11:00 +10°C° 0 mm 7 mps 744 mmHg 51%
    12:00 +11°C° 0 mm 6 mps 744 mmHg 48%
    13:00 +11°C° 0 mm 6 mps 744 mmHg 45%
    14:00 +13°C° 0 mm 5 mps 744 mmHg 43%
    15:00 +12°C° 0 mm 4 mps 744 mmHg 45%
    16:00 +12°C° 0 mm 3 mps 744 mmHg 47%
    17:00 +12°C° 0 mm 1 mps 745 mmHg 49%
    18:00 +11°C° 0 mm 1 mps 745 mmHg 52%
    19:00 +11°C° 0 mm 1 mps 745 mmHg 54%
    20:00 +10°C° 0 mm 1 mps 745 mmHg 56%
    21:00 +10°C° 0 mm 1 mps 745 mmHg 58%
    22:00 +9°C° 0 mm 2 mps 746 mmHg 60%
    23:00 +8°C° 0 mm 2 mps 746 mmHg 61%

    27 October, Saturday

    Time Temperature Precipitation Wind Pressure Humidity
    00:00 +8°C° 0 mm 2 mps 745 mmHg 64%
    01:00 +8°C° 0 mm 2 mps 745 mmHg 67%
    02:00 +8°C° 0 mm 2 mps 745 mmHg 70%
    03:00 +8°C° 0 mm 3 mps 745 mmHg 71%
    04:00 +8°C° 0 mm 3 mps 744 mmHg 71%
    05:00 +8°C° 0 mm 3 mps 744 mmHg 72%
    06:00 +8°C° 0 mm 3 mps 744 mmHg 69%
    07:00 +9°C° 0 mm 3 mps 744 mmHg 67%
    08:00 +10°C° 0 mm 3 mps 744 mmHg 64%
    09:00 +12°C° 0.1 mm 3 mps 744 mmHg 60%
    10:00 +13°C° 0.1 mm 4 mps 743 mmHg 57%
    11:00 +15°C° 0.1 mm 4 mps 743 mmHg 53%
    12:00 +17°C° 0.1 mm 4 mps 743 mmHg 51%
    13:00 +18°C° 0.1 mm 4 mps 743 mmHg 49%
    14:00 +19°C° 0.1 mm 4 mps 742 mmHg 47%
    15:00 +18°C° 0.1 mm 3 mps 743 mmHg 52%
    16:00 +17°C° 0.1 mm 3 mps 743 mmHg 57%
    17:00 +16°C° 0.1 mm 2 mps 743 mmHg 61%
    18:00 +15°C° 0 mm 2 mps 743 mmHg 66%
    19:00 +14°C° 0 mm 1 mps 743 mmHg 71%
    20:00 +13°C° 0 mm 1 mps 744 mmHg 76%
    21:00 +13°C° 0 mm 1 mps 744 mmHg 79%
    22:00 +13°C° 0 mm 1 mps 745 mmHg 81%
    23:00 +12°C° 0 mm 1 mps 745 mmHg 83%

    28 October, Sunday

    Time Temperature Precipitation Wind Pressure Humidity
    00:00 +12°C° 0 mm 1 mps 745 mmHg 84%
    01:00 +12°C° 0 mm 1 mps 745 mmHg 85%
    02:00 +11°C° 0 mm 1 mps 745 mmHg 86%
    03:00 +11°C° 0 mm 1 mps 745 mmHg 87%
    04:00 +11°C° 0 mm 1 mps 746 mmHg 88%
    05:00 +11°C° 0 mm 1 mps 746 mmHg 88%
    06:00 +11°C° 0 mm 1 mps 746 mmHg 87%
    07:00 +11°C° 0 mm 1 mps 746 mmHg 85%
    08:00 +12°C° 0 mm 1 mps 746 mmHg 83%
    09:00 +14°C° 0 mm 1 mps 747 mmHg 74%
    10:00 +16°C° 0 mm 2 mps 747 mmHg 65%
    11:00 +18°C° 0 mm 2 mps 747 mmHg 56%
    12:00 +20°C° 0 mm 2 mps 747 mmHg 52%
    13:00 +21°C° 0 mm 2 mps 746 mmHg 47%
    14:00 +24°C° 0 mm 2 mps 746 mmHg 43%
    15:00 +21°C° 0 mm 2 mps 746 mmHg 45%
    16:00 +20°C° 0 mm 2 mps 746 mmHg 48%
    17:00 +19°C° 0 mm 2 mps 746 mmHg 50%
    18:00 +19°C° 0 mm 2 mps 746 mmHg 51%
    19:00 +18°C° 0 mm 3 mps 746 mmHg 53%
    20:00 +17°C° 0 mm 3 mps 746 mmHg 54%
    21:00 +17°C° 0 mm 3 mps 746 mmHg 56%
    22:00 +17°C° 0 mm 3 mps 746 mmHg 59%
    23:00 +15°C° 0 mm 4 mps 746 mmHg 61%

    29 October, Monday

    Time Temperature Precipitation Wind Pressure Humidity
    00:00 +16°C° 0 mm 3 mps 746 mmHg 66%
    01:00 +14°C° 0 mm 3 mps 746 mmHg 71%
    02:00 +14°C° 0 mm 3 mps 746 mmHg 76%
    03:00 +13°C° 0 mm 3 mps 746 mmHg 80%
    04:00 +13°C° 0 mm 3 mps 746 mmHg 84%
    05:00 +13°C° 0 mm 3 mps 746 mmHg 88%
    06:00 +13°C° 0 mm 3 mps 745 mmHg 89%
    07:00 +13°C° 0 mm 3 mps 745 mmHg 90%
    08:00 +13°C° 0 mm 3 mps 745 mmHg 91%
    09:00 +15°C° 0 mm 4 mps 745 mmHg 82%
    10:00 +18°C° 0 mm 4 mps 745 mmHg 74%
    11:00 +19°C° 0 mm 5 mps 745 mmHg 65%
    12:00 +20°C° 0 mm 5 mps 745 mmHg 60%
    13:00 +21°C° 0 mm 5 mps 744 mmHg 55%
    14:00 +23°C° 0 mm 5 mps 744 mmHg 50%
    15:00 +22°C° 0 mm 5 mps 744 mmHg 51%
    16:00 +21°C° 0 mm 4 mps 744 mmHg 53%
    17:00 +20°C° 0 mm 3 mps 744 mmHg 55%
    18:00 +19°C° 0 mm 4 mps 744 mmHg 56%
    19:00 +19°C° 0 mm 4 mps 744 mmHg 57%
    20:00 +18°C° 0 mm 4 mps 744 mmHg 57%
    21:00 +18°C° 0 mm 3 mps 744 mmHg 57%
    22:00 +17°C° 0 mm 2 mps 744 mmHg 57%
    23:00 +17°C° 0 mm 2 mps 745 mmHg 57%
    Show more